FW2295 Weather Reports


time (UTC)temp
C
wind
direction
speed
KPH
gust
KPH
rain 1hr
cm
rain 24hr
cm
rain mn
cm
humidity
%
barometer
mb
20260504203005 16 320 20.9 41.8 0.00 0.00 0.00 41 1005.7
20260504201959 16 276 17.7 41.8 0.00 0.00 0.00 40 1005.7
20260504195936 16 281 17.7 33.8 0.00 0.00 0.00 41 1005.5
20260504194902 16 287 17.7 33.8 0.00 0.00 0.00 37 1005.4
20260504192822 16 354 17.7 41.8 0.00 0.00 0.00 37 1005.2
20260504191753 16 341 17.7 38.6 0.00 0.00 0.00 37 1005.2
20260504190818 16 318 19.3 38.6 0.00 0.00 0.00 36 1005.2
20260504185838 17 289 19.3 38.6 0.00 0.00 0.00 36 1005.1
20260504184836 17 318 19.3 40.2 0.00 0.00 0.00 37 1005.0
20260504183854 17 8 17.7 43.5 0.00 0.00 0.00 38 1004.7
20260504182841 17 309 22.5 43.5 0.00 0.00 0.00 39 1004.8
20260504181851 17 313 17.7 40.2 0.00 0.00 0.00 38 1004.5
20260504180838 17 310 20.9 40.2 0.00 0.00 0.00 39 1004.5
20260504175849 17 308 19.3 40.2 0.00 0.00 0.00 36 1004.5
20260504174819 17 300 16.1 38.6 0.00 0.00 0.00 39 1004.3
20260504173813 17 316 16.1 32.2 0.00 0.00 0.00 43 1004.3
20260504172837 17 319 17.7 38.6 0.00 0.00 0.00 44 1004.1
20260504171834 17 287 16.1 38.6 0.00 0.00 0.00 44 1003.9
20260504170833 17 299 14.5 27.4 0.00 0.00 0.00 43 1003.8
20260504150614 15 312 12.9 37.0 0.00 0.00 0.00 44 1002.9
20260504140629 15 297 11.3 25.7 0.00 0.00 0.00 59 1002.4
20260504130545 13 274 12.9 24.1 0.00 0.00 0.00 61 1002.2
20260504110640 10 215 3.2 16.1 0.00 0.00 0.00 69 1000.6
20260504100457 8 223 1.6 11.3 0.00 0.00 0.00 73 1001.7
20260504081343 8 162 0.0 4.8 0.00 0.00 0.00 71 1002.6
20260504080325 8 178 0.0 3.2 0.00 0.00 0.00 71 1002.7
20260504070329 8 186 0.0 6.4 0.00 0.00 0.00 69 1003.8
20260504050130 11 164 0.0 3.2 0.00 0.00 0.00 61 1005.8
20260504045102 11 190 0.0 6.4 0.00 0.00 0.00 60 1005.7
20260504044120 11 177 0.0 4.8 0.00 0.00 0.00 60 1005.9
20260504043049 11 169 0.0 4.8 0.00 0.00 0.00 59 1006.0
20260504042106 11 168 0.0 4.8 0.00 0.00 0.00 59 1006.0
20260504040021 12 177 0.0 4.8 0.00 0.00 0.00 57 1006.4
20260504035004 12 181 0.0 3.2 0.00 0.00 0.00 56 1006.7
20260504032949 12 191 0.0 3.2 0.00 0.00 0.00 55 1007.1
20260504031949 12 193 0.0 3.2 0.00 0.00 0.00 54 1007.3
20260504030918 12 193 0.0 3.2 0.00 0.00 0.00 51 1007.5
20260504025934 13 218 0.0 3.2 0.00 0.00 0.00 51 1007.5
20260504024917 13 222 0.0 4.8 0.00 0.00 0.00 52 1007.7
20260504023929 13 221 0.0 1.6 0.00 0.00 0.00 49 1007.7
20260504022920 14 221 0.0 1.6 0.00 0.00 0.00 48 1007.6
20260504021943 15 221 0.0 4.8 0.00 0.00 0.00 46 1007.6
20260504020909 15 255 1.6 4.8 0.00 0.00 0.00 44 1007.5
20260504015838 16 222 1.6 4.8 0.00 0.00 0.00 41 1007.3
20260504013812 17 210 0.0 6.4 0.00 0.00 0.00 38 1007.5
20260504012822 18 210 1.6 9.7 0.00 0.00 0.00 36 1007.4
20260504011755 18 241 4.8 14.5 0.00 0.00 0.00 35 1007.6
20260504010746 19 257 4.8 20.9 0.00 0.00 0.00 35 1007.5
20260504005713 20 269 6.4 20.9 0.00 0.00 0.00 32 1007.5
20260504004643 20 241 6.4 20.9 0.00 0.00 0.00 30 1007.7
20260504002559 21 226 8.0 22.5 0.00 0.00 0.00 31 1007.7
20260504000459 21 276 9.7 19.3 0.00 0.00 0.00 29 1007.9
20260503235450 21 314 9.7 19.3 0.00 0.00 0.00 28 1008.0
20260503233506 22 258 11.3 22.5 0.00 0.00 0.00 27 1008.0
20260503232509 22 233 8.0 24.1 0.00 0.00 0.00 29 1008.0
20260503231504 22 252 9.7 24.1 0.00 0.00 0.00 29 1008.1
20260503225500 21 354 9.7 22.5 0.00 0.00 0.00 30 1008.2
20260503224452 21 279 11.3 20.9 0.00 0.00 0.00 30 1008.3
20260503222507 22 258 11.3 27.4 0.00 0.00 0.00 32 1008.4
20260503221506 21 264 8.0 27.4 0.00 0.00 0.00 31 1008.6
20260503220449 21 299 6.4 16.1 0.00 0.00 0.00 34 1008.6
20260503215425 21 287 8.0 16.1 0.00 0.00 0.00 36 1008.8
20260503214437 21 277 6.4 17.7 0.00 0.00 0.00 36 1008.9
20260503212404 21 328 8.0 17.7 0.00 0.00 0.00 36 1009.2
20260503210401 21 293 9.7 22.5 0.00 0.00 0.00 34 1009.4
20260503205349 21 4 12.9 29.0 0.00 0.00 0.00 33 1009.6
20260503204356 21 284 9.7 29.0 0.00 0.00 0.00 33 1009.7
20260503203349 21 301 11.3 22.5 0.00 0.00 0.00 35 1009.9